{"data":{"norad_id":58066,"epoch":"2026-05-25T03:59:08.750400Z","epoch_age_seconds":60861,"freshness":"FRESH","line1":"1 58066U 23158R   26145.16607350  .00005301  00000+0  20195-3 0  9998","line2":"2 58066  43.0019 315.3515 0001181 282.9357  77.1363 15.27588899145261","mean_motion":15.27588899,"eccentricity":0.0001181,"inclination_deg":43.0019,"raan_deg":315.3515,"arg_perigee_deg":282.9357,"mean_anomaly_deg":77.1363,"bstar":0.00020195,"rev_number":14526,"period_min":94.266199560802,"perigee_km":482.21214643064,"apogee_km":483.83275229258,"semimajor_km":6861.1594493616,"source":"CELESTRAK","updated_at":"2026-05-25T13:38:18.502007Z"}}